TimeCST,TemperatureF,Dew PointF,Humidity,Sea Level PressureIn,VisibilityMPH,Wind Direction,Wind SpeedMPH,Gust SpeedMPH,PrecipitationIn,Events,Conditions,WindDirDegrees,DateUTC
12:53 AM,48.9,36.0,61,30.24,10.0,SSW,3.5,-,N/A,,Overcast,200,2013-01-09 06:53:00
1:53 AM,51.1,37.0,59,30.25,10.0,SSW,6.9,-,N/A,,Overcast,210,2013-01-09 07:53:00
2:53 AM,50.0,39.9,68,30.25,6.0,South,8.1,-,0.00,Rain,Light Rain,180,2013-01-09 08:53:00
3:53 AM,46.9,41.0,80,30.26,10.0,Calm,Calm,-,0.01,Rain,Light Rain,0,2013-01-09 09:53:00
4:53 AM,46.0,42.1,86,30.28,9.0,Calm,Calm,-,0.01,Rain,Light Rain,0,2013-01-09 10:53:00
5:53 AM,46.0,42.1,86,30.32,8.0,NNW,5.8,-,0.00,,Overcast,330,2013-01-09 11:53:00
6:53 AM,44.1,41.0,89,30.35,9.0,Calm,Calm,-,0.00,,Overcast,0,2013-01-09 12:53:00
7:53 AM,45.0,42.1,90,30.37,8.0,Calm,Calm,-,N/A,,Overcast,0,2013-01-09 13:53:00
8:53 AM,46.0,43.0,89,30.41,8.0,SE,3.5,-,N/A,,Overcast,140,2013-01-09 14:53:00
9:25 AM,46.4,42.8,87,30.40,8.0,SE,6.9,-,N/A,,Overcast,140,2013-01-09 15:25:00
9:53 AM,48.0,43.0,83,30.41,7.0,Calm,Calm,-,N/A,,Mostly Cloudy,0,2013-01-09 15:53:00
10:53 AM,50.0,45.0,83,30.39,8.0,East,3.5,-,N/A,,Mostly Cloudy,80,2013-01-09 16:53:00
11:53 AM,53.1,46.0,77,30.37,10.0,East,3.5,-,N/A,,Clear,80,2013-01-09 17:53:00
12:53 PM,55.9,46.0,69,30.35,10.0,NE,4.6,-,N/A,,Clear,50,2013-01-09 18:53:00
1:53 PM,57.0,46.0,67,30.35,10.0,NE,5.8,-,N/A,,Clear,50,2013-01-09 19:53:00
2:53 PM,57.0,44.1,62,30.36,10.0,ENE,8.1,-,N/A,,Clear,70,2013-01-09 20:53:00
3:53 PM,55.0,44.1,67,30.37,10.0,ENE,4.6,-,N/A,,Clear,70,2013-01-09 21:53:00
4:53 PM,52.0,43.0,71,30.38,10.0,ENE,5.8,-,N/A,,Clear,60,2013-01-09 22:53:00
5:53 PM,48.9,41.0,74,30.42,10.0,NE,6.9,-,N/A,,Clear,40,2013-01-09 23:53:00
6:53 PM,50.0,41.0,71,30.43,10.0,ENE,8.1,-,N/A,,Clear,60,2013-01-10 00:53:00
7:53 PM,50.0,37.9,63,30.43,10.0,ENE,9.2,-,N/A,,Clear,60,2013-01-10 01:53:00
8:53 PM,48.0,37.9,68,30.43,10.0,ENE,9.2,-,N/A,,Clear,60,2013-01-10 02:53:00
9:53 PM,48.9,36.0,61,30.42,10.0,ENE,11.5,-,N/A,,Clear,60,2013-01-10 03:53:00
10:53 PM,48.9,36.0,61,30.43,10.0,ENE,12.7,-,N/A,,Scattered Clouds,60,2013-01-10 04:53:00
11:53 PM,48.0,37.0,66,30.43,10.0,ENE,8.1,-,N/A,,Overcast,60,2013-01-10 05:53:00